Time,TemperatureF,DewpointF,PressureIn,WindDirection,WindDirectionDegrees,WindSpeedMPH,WindSpeedGustMPH,Humidity,HourlyPrecipIn,Conditions,Clouds,dailyrainin,SoftwareType,DateUTC
2013-02-21 00:07:00,25.3,-6.4,29.59,North,6,0.0,3.6,24,0.00,,,0.00,VWS V14.01,2013-02-21 05:07:00,
2013-02-21 00:22:00,25.0,-6.7,29.59,North,5,2.7,5.8,24,0.00,,,0.00,VWS V14.01,2013-02-21 05:22:00,
2013-02-21 00:37:00,24.4,-7.2,29.59,NW,310,0.0,2.7,24,0.00,,,0.00,VWS V14.01,2013-02-21 05:37:00,
2013-02-21 00:52:00,23.7,-7.8,29.59,North,7,0.0,3.1,24,0.00,,,0.00,VWS V14.01,2013-02-21 05:52:00,
2013-02-21 01:07:00,23.5,-7.9,29.59,North,0,5.4,5.4,24,0.00,,,0.00,VWS V14.01,2013-02-21 06:07:00,
2013-02-21 01:22:00,23.4,-8.1,29.59,West,271,0.0,5.4,24,0.00,,,0.00,VWS V14.01,2013-02-21 06:22:00,
2013-02-21 01:37:00,23.0,-7.6,29.59,West,272,0.0,0.0,25,0.00,,,0.00,VWS V14.01,2013-02-21 06:37:00,
2013-02-21 01:52:00,22.8,-7.7,29.62,North,0,0.0,0.0,25,0.00,,,0.00,VWS V14.01,2013-02-21 06:52:00,
2013-02-21 02:07:00,22.5,-8.0,29.62,North,0,0.0,0.0,25,0.00,,,0.00,VWS V14.01,2013-02-21 07:07:00,
2013-02-21 02:22:00,21.9,-8.5,29.62,North,0,0.0,0.0,25,0.00,,,0.00,VWS V14.01,2013-02-21 07:22:00,
2013-02-21 02:37:00,21.6,-8.8,29.62,North,0,0.0,0.0,25,0.00,,,0.00,VWS V14.01,2013-02-21 07:37:00,
2013-02-21 02:52:00,21.2,-9.1,29.62,North,0,0.0,0.0,25,0.00,,,0.00,VWS V14.01,2013-02-21 07:52:00,
2013-02-21 03:07:00,21.0,-9.3,29.62,North,0,0.0,0.0,25,0.00,,,0.00,VWS V14.01,2013-02-21 08:07:00,
2013-02-21 03:22:00,20.8,-7.9,29.62,North,0,0.0,0.0,27,0.00,,,0.00,VWS V14.01,2013-02-21 08:22:00,
2013-02-21 03:37:00,20.7,-8.0,29.62,North,0,0.0,0.0,27,0.00,,,0.00,VWS V14.01,2013-02-21 08:37:00,
2013-02-21 03:52:00,20.5,-8.2,29.62,North,0,0.0,0.0,27,0.00,,,0.00,VWS V14.01,2013-02-21 08:52:00,
2013-02-21 04:07:00,20.5,-8.2,29.62,North,0,0.0,0.0,27,0.00,,,0.00,VWS V14.01,2013-02-21 09:07:00,
2013-02-21 04:22:00,20.5,-8.2,29.62,North,0,0.0,0.0,27,0.00,,,0.00,VWS V14.01,2013-02-21 09:22:00,
2013-02-21 04:37:00,20.3,-8.3,29.62,North,0,0.0,0.0,27,0.00,,,0.00,VWS V14.01,2013-02-21 09:37:00,
2013-02-21 04:52:00,20.3,-8.3,29.62,North,0,0.0,0.0,27,0.00,,,0.00,VWS V14.01,2013-02-21 09:52:00,
2013-02-21 05:07:00,19.9,-8.6,29.62,North,0,0.0,0.0,27,0.00,,,0.00,VWS V14.01,2013-02-21 10:07:00,
2013-02-21 05:22:00,19.8,-8.8,29.65,North,357,0.0,0.0,27,0.00,,,0.00,VWS V14.01,2013-02-21 10:22:00,
2013-02-21 05:37:00,19.8,-8.8,29.65,North,0,0.0,0.0,27,0.00,,,0.00,VWS V14.01,2013-02-21 10:37:00,
2013-02-21 05:52:00,19.6,-9.0,29.65,North,0,0.0,0.0,27,0.00,,,0.00,VWS V14.01,2013-02-21 10:52:00,
2013-02-21 06:07:00,19.6,-9.0,29.65,North,0,0.0,0.0,27,0.00,,,0.00,VWS V14.01,2013-02-21 11:07:00,
2013-02-21 06:22:00,19.2,-8.5,29.65,North,0,0.0,0.0,28,0.00,,,0.00,VWS V14.01,2013-02-21 11:22:00,
2013-02-21 06:37:00,19.0,-7.3,29.65,North,0,0.0,0.0,30,0.00,,,0.00,VWS V14.01,2013-02-21 11:37:00,
2013-02-21 06:52:00,19.0,-7.3,29.65,North,0,0.0,0.0,30,0.00,,,0.00,VWS V14.01,2013-02-21 11:52:00,
2013-02-21 07:07:00,19.0,-7.3,29.65,North,0,0.0,0.0,30,0.00,,,0.00,VWS V14.01,2013-02-21 12:07:00,
2013-02-21 07:22:00,18.7,-7.6,29.68,North,0,0.0,0.0,30,0.00,,,0.00,VWS V14.01,2013-02-21 12:22:00,
2013-02-21 07:37:00,18.7,-5.6,29.68,North,0,0.0,0.0,33,0.00,,,0.00,VWS V14.01,2013-02-21 12:37:00,
2013-02-21 07:52:00,19.0,-5.3,29.68,North,0,0.0,0.0,33,0.00,,,0.00,VWS V14.01,2013-02-21 12:52:00,
2013-02-21 08:07:00,19.4,-5.0,29.68,North,0,0.0,0.0,33,0.00,,,0.00,VWS V14.01,2013-02-21 13:07:00,
2013-02-21 08:22:00,20.8,-3.7,29.68,North,0,0.0,0.0,33,0.00,,,0.00,VWS V14.01,2013-02-21 13:22:00,
2013-02-21 08:37:00,22.5,-2.9,29.68,North,0,0.0,0.0,32,0.00,,,0.00,VWS V14.01,2013-02-21 13:37:00,
2013-02-21 08:52:00,23.2,-2.3,29.68,NE,48,0.0,0.0,32,0.00,,,0.00,VWS V14.01,2013-02-21 13:52:00,
2013-02-21 09:07:00,23.9,-3.7,29.68,NE,48,0.0,0.0,29,0.00,,,0.00,VWS V14.01,2013-02-21 14:07:00,
2013-02-21 09:22:00,23.9,-3.7,29.71,NE,48,0.0,0.0,29,0.00,,,0.00,VWS V14.01,2013-02-21 14:22:00,
2013-02-21 09:37:00,24.4,-3.2,29.71,NE,48,0.0,0.0,29,0.00,,,0.00,VWS V14.01,2013-02-21 14:37:00,
2013-02-21 09:52:00,25.0,-5.1,29.68,NNW,339,0.0,2.7,26,0.00,,,0.00,VWS V14.01,2013-02-21 14:52:00,
2013-02-21 10:07:00,26.2,-4.0,29.68,ESE,109,0.0,0.0,26,0.00,,,0.00,VWS V14.01,2013-02-21 15:07:00,
2013-02-21 10:22:00,27.7,-2.7,29.68,NW,323,0.0,0.0,26,0.00,,,0.00,VWS V14.01,2013-02-21 15:22:00,
2013-02-21 10:37:00,27.7,-2.7,29.68,NNW,339,2.2,2.2,26,0.00,,,0.00,VWS V14.01,2013-02-21 15:37:00,
2013-02-21 10:52:00,29.3,-2.2,29.68,ENE,68,3.1,3.1,25,0.00,,,0.00,VWS V14.01,2013-02-21 15:52:00,
2013-02-21 11:07:00,29.5,-2.0,29.68,NE,52,2.7,3.6,25,0.00,,,0.00,VWS V14.01,2013-02-21 16:07:00,
2013-02-21 11:22:00,30.6,-1.1,29.68,SE,135,0.0,2.7,25,0.00,,,0.00,VWS V14.01,2013-02-21 16:22:00,
2013-02-21 11:37:00,31.1,-0.6,29.68,ESE,114,3.1,3.1,25,0.00,,,0.00,VWS V14.01,2013-02-21 16:37:00,
2013-02-21 11:52:00,31.5,-0.3,29.65,NNE,19,2.2,3.1,25,0.00,,,0.00,VWS V14.01,2013-02-21 16:52:00,
2013-02-21 12:07:00,32.2,0.3,29.65,NW,325,3.1,3.1,25,0.00,,,0.00,VWS V14.01,2013-02-21 17:07:00,
2013-02-21 12:22:00,32.7,0.8,29.65,East,94,0.0,3.1,25,0.00,,,0.00,VWS V14.01,2013-02-21 17:22:00,
2013-02-21 12:37:00,34.0,1.9,29.62,NW,318,0.0,0.0,25,0.00,,,0.00,VWS V14.01,2013-02-21 17:37:00,
2013-02-21 12:52:00,34.2,2.0,29.62,NW,323,0.0,0.0,25,0.00,,,0.00,VWS V14.01,2013-02-21 17:52:00,
2013-02-21 13:07:00,34.9,2.6,29.62,ESE,114,0.0,0.0,25,0.00,,,0.00,VWS V14.01,2013-02-21 18:07:00,
2013-02-21 13:22:00,35.8,2.5,29.59,East,92,0.0,0.0,24,0.00,,,0.00,VWS V14.01,2013-02-21 18:22:00,
2013-02-21 13:37:00,36.3,3.0,29.59,East,99,0.0,0.0,24,0.00,,,0.00,VWS V14.01,2013-02-21 18:37:00,
2013-02-21 13:52:00,37.4,3.9,29.59,East,98,0.0,0.0,24,0.00,,,0.00,VWS V14.01,2013-02-21 18:52:00,
2013-02-21 14:07:00,37.4,3.9,29.59,NNW,343,0.0,3.1,24,0.00,,,0.00,VWS V14.01,2013-02-21 19:07:00,
2013-02-21 14:22:00,37.8,4.2,29.56,North,353,0.0,3.1,24,0.00,,,0.00,VWS V14.01,2013-02-21 19:22:00,
2013-02-21 14:37:00,38.8,5.2,29.53,NNE,13,0.0,0.0,24,0.00,,,0.00,VWS V14.01,2013-02-21 19:37:00,
2013-02-21 14:52:00,39.2,4.5,29.56,East,98,0.0,0.0,23,0.00,,,0.00,VWS V14.01,2013-02-21 19:52:00,
2013-02-21 15:07:00,39.4,4.7,29.56,East,89,0.0,0.0,23,0.00,,,0.00,VWS V14.01,2013-02-21 20:07:00,
2013-02-21 15:22:00,39.2,4.5,29.56,East,100,0.0,0.0,23,0.00,,,0.00,VWS V14.01,2013-02-21 20:22:00,
2013-02-21 15:37:00,37.9,4.4,29.56,ESE,106,0.0,0.0,24,0.00,,,0.00,VWS V14.01,2013-02-21 20:37:00,
2013-02-21 15:52:00,36.3,3.0,29.56,ESE,105,0.0,0.0,24,0.00,,,0.00,VWS V14.01,2013-02-21 20:52:00,
2013-02-21 16:07:00,36.3,3.0,29.56,ESE,105,0.0,0.0,24,0.00,,,0.00,VWS V14.01,2013-02-21 21:07:00,
2013-02-21 16:22:00,36.7,3.3,29.56,ESE,105,0.0,0.0,24,0.00,,,0.00,VWS V14.01,2013-02-21 21:22:00,
2013-02-21 16:37:00,36.9,3.5,29.56,ESE,104,0.0,0.0,24,0.00,,,0.00,VWS V14.01,2013-02-21 21:37:00,
2013-02-21 16:52:00,37.2,3.8,29.56,ESE,104,0.0,0.0,24,0.00,,,0.00,VWS V14.01,2013-02-21 21:52:00,
2013-02-21 17:07:00,37.6,4.1,29.56,ESE,104,0.0,0.0,24,0.00,,,0.00,VWS V14.01,2013-02-21 22:07:00,
2013-02-21 17:22:00,37.4,3.9,29.56,NW,310,0.0,0.0,24,0.00,,,0.00,VWS V14.01,2013-02-21 22:22:00,
2013-02-21 17:37:00,36.9,3.5,29.56,WNW,302,0.0,2.7,24,0.00,,,0.00,VWS V14.01,2013-02-21 22:37:00,
2013-02-21 17:52:00,36.3,3.0,29.56,WNW,289,0.0,0.0,24,0.00,,,0.00,VWS V14.01,2013-02-21 22:52:00,
2013-02-21 18:07:00,35.6,2.4,29.56,WNW,289,0.0,0.0,24,0.00,,,0.00,VWS V14.01,2013-02-21 23:07:00,
2013-02-21 18:22:00,35.1,2.8,29.56,WNW,289,0.0,0.0,25,0.00,,,0.00,VWS V14.01,2013-02-21 23:22:00,
2013-02-21 18:37:00,34.3,2.2,29.56,WNW,289,0.0,0.0,25,0.00,,,0.00,VWS V14.01,2013-02-21 23:37:00,
2013-02-21 18:52:00,34.2,2.0,29.56,WNW,289,0.0,0.0,25,0.00,,,0.00,VWS V14.01,2013-02-21 23:52:00,
2013-02-21 19:07:00,34.2,2.0,29.56,WNW,289,0.0,0.0,25,0.00,,,0.00,VWS V14.01,2013-02-22 00:07:00,
2013-02-21 19:22:00,34.0,1.9,29.56,WNW,289,0.0,0.0,25,0.00,,,0.00,VWS V14.01,2013-02-22 00:22:00,
2013-02-21 19:37:00,34.2,2.0,29.56,WNW,289,0.0,0.0,25,0.00,,,0.00,VWS V14.01,2013-02-22 00:37:00,
2013-02-21 19:52:00,34.0,1.9,29.53,WNW,289,0.0,0.0,25,0.00,,,0.00,VWS V14.01,2013-02-22 00:52:00,
2013-02-21 20:07:00,33.8,1.7,29.53,WNW,289,0.0,0.0,25,0.00,,,0.00,VWS V14.01,2013-02-22 01:07:00,
2013-02-21 20:22:00,33.4,1.4,29.53,WNW,289,0.0,0.0,25,0.00,,,0.00,VWS V14.01,2013-02-22 01:22:00,
2013-02-21 20:37:00,33.3,1.2,29.53,WNW,289,0.0,0.0,25,0.00,,,0.00,VWS V14.01,2013-02-22 01:37:00,
2013-02-21 20:52:00,33.3,1.2,29.53,WNW,289,0.0,0.0,25,0.00,,,0.00,VWS V14.01,2013-02-22 01:52:00,
2013-02-21 21:07:00,33.4,1.4,29.53,WNW,289,0.0,0.0,25,0.00,,,0.00,VWS V14.01,2013-02-22 02:07:00,
2013-02-21 21:22:00,33.4,1.4,29.53,WNW,289,0.0,0.0,25,0.00,,,0.00,VWS V14.01,2013-02-22 02:22:00,
2013-02-21 21:37:00,33.3,1.2,29.50,WNW,289,0.0,0.0,25,0.00,,,0.00,VWS V14.01,2013-02-22 02:37:00,
2013-02-21 21:52:00,33.3,1.2,29.50,WNW,289,0.0,0.0,25,0.00,,,0.00,VWS V14.01,2013-02-22 02:52:00,
2013-02-21 22:07:00,33.3,1.2,29.50,WNW,289,0.0,0.0,25,0.00,,,0.00,VWS V14.01,2013-02-22 03:07:00,
2013-02-21 22:22:00,33.3,1.2,29.50,WNW,289,0.0,0.0,25,0.00,,,0.00,VWS V14.01,2013-02-22 03:22:00,
2013-02-21 22:37:00,33.4,1.4,29.50,WNW,289,0.0,0.0,25,0.00,,,0.00,VWS V14.01,2013-02-22 03:37:00,
2013-02-21 22:52:00,33.4,1.4,29.50,WNW,289,0.0,0.0,25,0.00,,,0.00,VWS V14.01,2013-02-22 03:52:00,
2013-02-21 23:07:00,33.6,1.6,29.50,WNW,289,0.0,0.0,25,0.00,,,0.00,VWS V14.01,2013-02-22 04:07:00,
2013-02-21 23:22:00,33.6,1.6,29.50,WNW,289,0.0,0.0,25,0.00,,,0.00,VWS V14.01,2013-02-22 04:22:00,
2013-02-21 23:37:00,33.6,1.6,29.53,WNW,289,0.0,0.0,25,0.00,,,0.00,VWS V14.01,2013-02-22 04:37:00,
2013-02-21 23:52:00,33.8,1.7,29.53,WNW,289,0.0,0.0,25,0.00,,,0.00,VWS V14.01,2013-02-22 04:52:00,